This is the latest recevied weather packets stored in our database for station/object DG4DAZ-6. If no packets are shown the sender has not sent any weather packets the latest 10 day(s).
| Time | Temp. | Humidity | Pressure | Rain* | Wind** | Luminosity | Snow |
|---|---|---|---|---|---|---|---|
| 1777166670 | 5.56° C | 86% | 1021.4 hPa | 0 mm | - | 0 W/m² | - |
| 1777166069 | 5° C | 85% | 1021.2 hPa | 0 mm | - | 0 W/m² | - |
| 1777165471 | 5.56° C | 84% | 1021.2 hPa | 0 mm | - | 0 W/m² | - |
| 1777164870 | 5.56° C | 82% | 1021 hPa | 0 mm | - | 0 W/m² | - |
| 1777164269 | 5.56° C | 80% | 1021 hPa | 0 mm | - | 0 W/m² | - |
| 1777163671 | 6.11° C | 78% | 1021 hPa | 0 mm | - | 0 W/m² | - |
| 1777163070 | 6.11° C | 76% | 1021.1 hPa | 0 mm | - | 0 W/m² | - |
| 1777162470 | 6.67° C | 75% | 1021.1 hPa | 0 mm | - | 0 W/m² | - |
| 1777161869 | 6.67° C | 74% | 1021 hPa | 0 mm | - | 0 W/m² | - |
| 1777161271 | 7.22° C | 73% | 1021 hPa | 0 mm | - | 0 W/m² | - |
| 1777160670 | 7.22° C | 72% | 1020.9 hPa | 0 mm | - | 0 W/m² | - |
| 1777160070 | 7.22° C | 72% | 1020.9 hPa | 0 mm | - | 0 W/m² | - |
| 1777159471 | 7.22° C | 71% | 1020.8 hPa | 0 mm | - | 0 W/m² | - |
| 1777158871 | 7.78° C | 70% | 1020.7 hPa | 0 mm | - | 0 W/m² | - |
| 1777158269 | 7.78° C | 69% | 1020.6 hPa | 0 mm | - | 0 W/m² | - |
| 1777157670 | 7.78° C | 69% | 1020.5 hPa | 0 mm | - | 0 W/m² | - |
| 1777157070 | 7.78° C | 68% | 1020.4 hPa | 0 mm | - | 0 W/m² | - |
| 1777156470 | 7.78° C | 67% | 1020.4 hPa | 0 mm | - | 0 W/m² | - |
| 1777155869 | 8.33° C | 65% | 1020.1 hPa | 0 mm | - | 0 W/m² | - |
| 1777155270 | 8.33° C | 65% | 1020 hPa | 0 mm | - | 0 W/m² | - |
| 1777154670 | 8.89° C | 64% | 1020 hPa | 0 mm | - | 0 W/m² | - |
| 1777154069 | 8.89° C | 63% | 1019.9 hPa | 0 mm | - | 0 W/m² | - |
| 1777153471 | 8.89° C | 63% | 1020 hPa | 0 mm | - | 0 W/m² | - |
| 1777152870 | 8.89° C | 62% | 1020 hPa | 0 mm | - | 0 W/m² | - |
| 1777152269 | 9.44° C | 61% | 1019.9 hPa | 0 mm | - | 0 W/m² | - |
* Rain latest hour (hover to see other rain measurements)
** Current wind speed in m/s (hover to see current wind gust speed)